Location: Cahas Mountain Overlook
(37.0833°N, 80.1000°W)
Time: 13:38:20
(UTC-05:00)

S-56A Canister/Altair - Pass Details

Date: 02 December 2023
Orbit: 639 x 2488 km, 38.9° (Epoch: 02 March)

Event Time Altitude Azimuth Distance (km) Brightness Sun altitude
Rises 20:10:52 0° 270° (W) 3,847 12.1 -36.8°
Reaches altitude 10° 20:14:46 10° 247° (WSW) 3,219 11.3 -37.5°
Maximum altitude 20:18:54 15° 216° (SW) 3,201 10.9 -38.4°
Drops below altitude 10° 20:23:49 10° 186° (S) 3,957 11.2 -39.3°
Sets 20:29:43 0° 166° (SSE) 5,371 11.7 -40.5°
